This is the latest recevied weather packets stored in our database for station/object KG5TTF. If no packets are shown the sender has not sent any weather packets the latest 10 day(s).
| Time | Temp. | Humidity | Pressure | Rain* | Wind** | Luminosity | Snow |
|---|---|---|---|---|---|---|---|
| 1777177266 | 0.56° C | 86% | 1016.3 hPa | 0 mm | - | 0 W/m² | - |
| 1777176964 | 0.56° C | 86% | 1016.5 hPa | 0 mm | - | 0 W/m² | - |
| 1777176660 | 0.56° C | 85% | 1016.4 hPa | 0 mm | - | 0 W/m² | - |
| 1777176356 | 1.11° C | 85% | 1016.5 hPa | 0 mm | - | 0 W/m² | - |
| 1777176053 | 1.11° C | 85% | 1016.6 hPa | 0 mm | - | 0 W/m² | - |
| 1777175751 | 1.11° C | 84% | 1016.8 hPa | 0 mm | - | 0 W/m² | - |
| 1777175446 | 1.11° C | 84% | 1016.4 hPa | 0 mm | - | 0 W/m² | - |
| 1777175140 | 1.11° C | 84% | 1016.5 hPa | 0 mm | - | 0 W/m² | - |
| 1777174838 | 1.11° C | 83% | 1016.6 hPa | 0 mm | - | 0 W/m² | - |
| 1777174534 | 1.11° C | 82% | 1016.5 hPa | 0 mm | - | 0 W/m² | - |
| 1777174234 | 1.67° C | 81% | 1016.3 hPa | 0 mm | - | 0 W/m² | - |
| 1777173929 | 1.67° C | 80% | 1016.1 hPa | 0 mm | - | 0 W/m² | - |
| 1777173626 | 1.67° C | 79% | 1016.3 hPa | 0 mm | - | 0 W/m² | - |
| 1777173325 | 2.22° C | 78% | 1016.3 hPa | 0 mm | - | 0 W/m² | - |
| 1777173020 | 2.22° C | 77% | 1016.5 hPa | 0 mm | - | 0 W/m² | - |
| 1777172719 | 2.22° C | 76% | 1016.3 hPa | 0 mm | - | 0 W/m² | - |
| 1777172416 | 2.78° C | 73% | 1016 hPa | 0 mm | - | 0 W/m² | - |
| 1777172115 | 3.33° C | 70% | 1016 hPa | 0 mm | - | 0 W/m² | - |
| 1777171813 | 5° C | 64% | 1016 hPa | 0 mm | - | 0 W/m² | - |
| 1777171509 | 5° C | 62% | 1015.8 hPa | 0 mm | - | 0 W/m² | - |
| 1777171203 | 5.56° C | 60% | 1015.9 hPa | 0 mm | - | 0 W/m² | - |
| 1777170902 | 5.56° C | 60% | 1016 hPa | 0 mm | - | 0 W/m² | - |
| 1777170599 | 5.56° C | 60% | 1015.7 hPa | 0 mm | - | 0 W/m² | - |
| 1777170295 | 5.56° C | 58% | 1015.4 hPa | 0 mm | - | 0 W/m² | - |
| 1777169993 | 6.11° C | 58% | 1015.5 hPa | 0 mm | - | 0 W/m² | - |
* Rain latest hour (hover to see other rain measurements)
** Current wind speed in m/s (hover to see current wind gust speed)